Time,TemperatureF,DewpointF,PressureIn,WindDirection,WindDirectionDegrees,WindSpeedMPH,WindSpeedGustMPH,Humidity,HourlyPrecipIn,Conditions,Clouds,dailyrainin,SoftwareType,DateUTC
2013-03-01 00:02:00,24.0,20.0,30.26,WNW,292,6.0,12.0,83,0.00,,,0.00,,2013-03-01 06:02:00,
2013-03-01 00:11:00,24.0,20.0,30.26,WNW,292,6.0,12.0,83,0.00,,,0.00,,2013-03-01 06:11:00,
2013-03-01 00:22:00,24.0,20.0,30.26,WNW,302,10.0,15.0,83,0.00,,,0.00,,2013-03-01 06:22:00,
2013-03-01 00:32:00,24.0,20.0,30.26,NW,310,7.0,14.0,83,0.00,,,0.00,,2013-03-01 06:32:00,
2013-03-01 00:42:00,24.0,20.0,30.26,NW,310,7.0,14.0,83,0.00,,,0.00,,2013-03-01 06:42:00,
2013-03-01 00:52:00,24.0,20.0,30.26,WNW,286,5.0,13.0,83,0.00,,,0.00,,2013-03-01 06:52:00,
2013-03-01 01:02:00,24.0,20.0,30.27,WNW,288,6.0,12.0,83,0.00,,,0.00,,2013-03-01 07:02:00,
2013-03-01 01:11:00,24.0,20.0,30.27,WNW,288,6.0,12.0,83,0.00,,,0.00,,2013-03-01 07:11:00,
2013-03-01 01:22:00,24.0,20.0,30.27,WNW,291,8.0,12.0,83,0.00,,,0.00,,2013-03-01 07:22:00,
2013-03-01 01:32:00,24.0,20.0,30.27,WNW,294,8.0,13.0,83,0.00,,,0.00,,2013-03-01 07:32:00,
2013-03-01 01:42:00,24.0,20.0,30.27,WNW,294,8.0,13.0,83,0.00,,,0.00,,2013-03-01 07:42:00,
2013-03-01 01:52:00,24.0,20.0,30.27,WNW,295,9.0,14.0,83,0.00,,,0.00,,2013-03-01 07:52:00,
2013-03-01 02:02:00,24.0,20.0,30.27,NNW,331,6.0,14.0,83,0.00,,,0.00,,2013-03-01 08:02:00,
2013-03-01 02:11:00,24.0,20.0,30.27,NNW,331,6.0,14.0,83,0.00,,,0.00,,2013-03-01 08:11:00,
2013-03-01 02:22:00,24.0,19.0,30.27,WNW,294,8.0,16.0,81,0.00,,,0.00,,2013-03-01 08:22:00,
2013-03-01 02:32:00,24.0,19.0,30.27,WNW,296,4.0,12.0,81,0.00,,,0.00,,2013-03-01 08:32:00,
2013-03-01 02:42:00,24.0,19.0,30.27,WNW,296,4.0,12.0,81,0.00,,,0.00,,2013-03-01 08:42:00,
2013-03-01 02:52:00,24.0,19.0,30.27,NNW,328,7.0,13.0,81,0.00,,,0.00,,2013-03-01 08:52:00,
2013-03-01 03:02:00,24.0,19.0,30.27,NW,324,6.0,14.0,82,0.00,,,0.00,,2013-03-01 09:02:00,
2013-03-01 03:12:00,24.0,19.0,30.27,NW,324,6.0,14.0,82,0.00,,,0.00,,2013-03-01 09:12:00,
2013-03-01 03:22:00,24.0,20.0,30.27,WNW,295,4.0,10.0,83,0.00,,,0.00,,2013-03-01 09:22:00,
2013-03-01 03:32:00,24.0,20.0,30.27,NW,314,5.0,11.0,85,0.00,,,0.00,,2013-03-01 09:32:00,
2013-03-01 03:42:00,24.0,20.0,30.27,NW,314,5.0,11.0,85,0.00,,,0.00,,2013-03-01 09:42:00,
2013-03-01 03:52:00,23.0,19.0,30.27,NNW,328,6.0,13.0,85,0.00,,,0.00,,2013-03-01 09:52:00,
2013-03-01 04:02:00,23.0,19.0,30.26,WNW,290,6.0,10.0,86,0.00,,,0.00,,2013-03-01 10:02:00,
2013-03-01 04:11:00,23.0,19.0,30.26,WNW,290,6.0,10.0,86,0.00,,,0.00,,2013-03-01 10:11:00,
2013-03-01 04:22:00,23.0,19.0,30.27,WNW,296,6.0,11.0,85,0.00,,,0.00,,2013-03-01 10:22:00,
2013-03-01 04:32:00,23.0,19.0,30.27,NW,318,4.0,11.0,85,0.00,,,0.00,,2013-03-01 10:32:00,
2013-03-01 04:42:00,23.0,19.0,30.27,NW,318,4.0,11.0,85,0.00,,,0.00,,2013-03-01 10:42:00,
2013-03-01 04:52:00,23.0,19.0,30.27,WNW,294,6.0,12.0,84,0.00,,,0.00,,2013-03-01 10:52:00,
2013-03-01 05:01:00,23.0,19.0,30.27,WNW,295,7.0,16.0,85,0.00,,,0.00,,2013-03-01 11:01:00,
2013-03-01 05:11:00,23.0,19.0,30.27,WNW,295,7.0,16.0,85,0.00,,,0.00,,2013-03-01 11:11:00,
2013-03-01 05:22:00,23.0,19.0,30.27,WNW,298,7.0,13.0,85,0.00,,,0.00,,2013-03-01 11:22:00,
2013-03-01 05:32:00,23.0,19.0,30.28,NNW,347,6.0,12.0,85,0.00,,,0.00,,2013-03-01 11:32:00,
2013-03-01 05:42:00,23.0,19.0,30.28,NNW,347,6.0,12.0,85,0.00,,,0.00,,2013-03-01 11:42:00,
2013-03-01 05:52:00,23.0,19.0,30.28,WNW,290,8.0,13.0,85,0.00,,,0.00,,2013-03-01 11:52:00,
2013-03-01 06:01:00,23.0,19.0,30.28,NW,310,6.0,14.0,85,0.00,,,0.00,,2013-03-01 12:01:00,
2013-03-01 06:11:00,23.0,19.0,30.28,NW,310,6.0,14.0,85,0.00,,,0.00,,2013-03-01 12:11:00,
2013-03-01 06:21:00,23.0,19.0,30.28,NW,310,4.0,11.0,85,0.00,,,0.00,,2013-03-01 12:21:00,
2013-03-01 06:32:00,22.0,18.0,30.28,WNW,284,9.0,13.0,85,0.00,,,0.00,,2013-03-01 12:32:00,
2013-03-01 06:42:00,22.0,18.0,30.28,WNW,284,9.0,13.0,85,0.00,,,0.00,,2013-03-01 12:42:00,
2013-03-01 06:52:00,22.0,18.0,30.28,NW,315,9.0,12.0,85,0.00,,,0.00,,2013-03-01 12:52:00,
2013-03-01 07:01:00,22.0,18.0,30.29,WNW,293,7.0,11.0,85,0.00,,,0.00,,2013-03-01 13:01:00,
2013-03-01 07:11:00,22.0,18.0,30.29,WNW,293,7.0,11.0,85,0.00,,,0.00,,2013-03-01 13:11:00,
2013-03-01 07:21:00,22.0,18.0,30.29,WNW,289,7.0,16.0,85,0.00,,,0.00,,2013-03-01 13:21:00,
2013-03-01 07:32:00,22.0,18.0,30.29,NNW,338,5.0,13.0,85,0.00,,,0.00,,2013-03-01 13:32:00,
2013-03-01 07:42:00,22.0,18.0,30.29,NNW,338,5.0,13.0,85,0.00,,,0.00,,2013-03-01 13:42:00,
2013-03-01 07:52:00,22.0,18.0,30.30,NW,322,7.0,14.0,86,0.00,,,0.00,,2013-03-01 13:52:00,
2013-03-01 08:01:00,22.0,18.0,30.30,WNW,290,8.0,14.0,86,0.00,,,0.00,,2013-03-01 14:01:00,
2013-03-01 08:11:00,22.0,18.0,30.30,WNW,290,8.0,14.0,86,0.00,,,0.00,,2013-03-01 14:11:00,
2013-03-01 08:21:00,22.0,18.0,30.31,NW,306,8.0,14.0,86,0.00,,,0.00,,2013-03-01 14:21:00,
2013-03-01 08:32:00,22.0,18.0,30.32,NW,321,6.0,14.0,86,0.00,,,0.00,,2013-03-01 14:32:00,
2013-03-01 08:41:00,22.0,18.0,30.32,NW,321,6.0,14.0,86,0.00,,,0.00,,2013-03-01 14:41:00,
2013-03-01 08:52:00,23.0,20.0,30.32,NW,316,5.0,10.0,87,0.00,,,0.00,,2013-03-01 14:52:00,
2013-03-01 09:01:00,23.0,20.0,30.32,NW,318,7.0,13.0,87,0.00,,,0.00,,2013-03-01 15:01:00,
2013-03-01 09:11:00,23.0,20.0,30.33,NW,324,6.0,12.0,87,0.00,,,0.00,,2013-03-01 15:11:00,
2013-03-01 09:21:00,23.0,20.0,30.33,NW,324,6.0,12.0,87,0.00,,,0.00,,2013-03-01 15:21:00,
2013-03-01 09:32:00,23.0,20.0,30.33,NNW,334,3.0,12.0,88,0.00,,,0.00,,2013-03-01 15:32:00,
2013-03-01 09:42:00,23.0,20.0,30.33,NNW,334,3.0,12.0,88,0.00,,,0.00,,2013-03-01 15:42:00,
2013-03-01 09:52:00,23.0,20.0,30.33,NNW,334,3.0,12.0,88,0.00,,,0.00,,2013-03-01 15:52:00,
2013-03-01 10:01:00,24.0,20.0,30.33,WNW,291,8.0,14.0,86,0.00,,,0.00,,2013-03-01 16:01:00,
2013-03-01 10:11:00,24.0,20.0,30.33,WNW,291,8.0,14.0,86,0.00,,,0.00,,2013-03-01 16:11:00,
2013-03-01 10:21:00,24.0,20.0,30.34,NNW,344,5.0,15.0,85,0.00,,,0.00,,2013-03-01 16:21:00,
2013-03-01 10:32:00,24.0,20.0,30.34,North,355,9.0,15.0,85,0.00,,,0.00,,2013-03-01 16:32:00,
2013-03-01 10:42:00,24.0,20.0,30.34,North,355,9.0,15.0,85,0.00,,,0.00,,2013-03-01 16:42:00,
2013-03-01 10:51:00,25.0,20.0,30.34,NNW,340,7.0,15.0,81,0.00,,,0.00,,2013-03-01 16:51:00,
2013-03-01 11:01:00,25.0,20.0,30.34,NNW,346,6.0,14.0,80,0.00,,,0.00,,2013-03-01 17:01:00,
2013-03-01 11:11:00,25.0,20.0,30.34,NNW,346,6.0,14.0,80,0.00,,,0.00,,2013-03-01 17:11:00,
2013-03-01 11:21:00,26.0,20.0,30.33,NNW,344,4.0,17.0,77,0.00,,,0.00,,2013-03-01 17:21:00,
2013-03-01 11:32:00,26.0,19.0,30.33,North,9,2.0,15.0,76,0.00,,,0.00,,2013-03-01 17:32:00,
2013-03-01 11:41:00,26.0,19.0,30.33,North,9,2.0,15.0,76,0.00,,,0.00,,2013-03-01 17:41:00,
2013-03-01 11:52:00,26.0,19.0,30.34,NW,322,10.0,18.0,75,0.00,,,0.00,,2013-03-01 17:52:00,
2013-03-01 12:01:00,26.0,19.0,30.34,WNW,300,6.0,15.0,76,0.00,,,0.00,,2013-03-01 18:01:00,
2013-03-01 12:12:00,26.0,19.0,30.34,WNW,300,6.0,15.0,76,0.00,,,0.00,,2013-03-01 18:12:00,
2013-03-01 12:22:00,26.0,19.0,30.34,NNW,336,9.0,20.0,75,0.00,,,0.00,,2013-03-01 18:22:00,
2013-03-01 12:32:00,26.0,19.0,30.34,NNW,348,7.0,15.0,75,0.00,,,0.00,,2013-03-01 18:32:00,
2013-03-01 12:42:00,26.0,19.0,30.34,NNW,348,7.0,15.0,75,0.00,,,0.00,,2013-03-01 18:42:00,
2013-03-01 12:52:00,26.0,19.0,30.34,NNE,13,9.0,16.0,75,0.00,,,0.00,,2013-03-01 18:52:00,
2013-03-01 13:01:00,26.0,19.0,30.34,NNE,27,8.0,19.0,73,0.00,,,0.00,,2013-03-01 19:01:00,
2013-03-01 13:11:00,26.0,19.0,30.34,NNE,27,8.0,19.0,73,0.00,,,0.00,,2013-03-01 19:11:00,
2013-03-01 13:21:00,26.0,19.0,30.34,NNE,23,7.0,21.0,73,0.00,,,0.00,,2013-03-01 19:21:00,
2013-03-01 13:32:00,26.0,18.0,30.33,North,360,8.0,18.0,71,0.00,,,0.00,,2013-03-01 19:32:00,
2013-03-01 13:42:00,26.0,18.0,30.33,North,360,8.0,18.0,71,0.00,,,0.00,,2013-03-01 19:42:00,
2013-03-01 13:51:00,26.0,18.0,30.33,North,5,11.0,20.0,71,0.00,,,0.00,,2013-03-01 19:51:00,
2013-03-01 14:01:00,26.0,18.0,30.33,NNW,331,7.0,18.0,70,0.00,,,0.00,,2013-03-01 20:01:00,
2013-03-01 14:11:00,26.0,18.0,30.33,NNW,331,7.0,18.0,70,0.00,,,0.00,,2013-03-01 20:11:00,
2013-03-01 14:21:00,26.0,18.0,30.33,North,355,5.0,17.0,70,0.00,,,0.00,,2013-03-01 20:21:00,
2013-03-01 14:32:00,26.0,18.0,30.33,NNW,329,6.0,12.0,71,0.00,,,0.00,,2013-03-01 20:32:00,
2013-03-01 14:41:00,26.0,18.0,30.33,NNW,329,6.0,12.0,71,0.00,,,0.00,,2013-03-01 20:41:00,
2013-03-01 14:52:00,26.0,18.0,30.33,NNW,332,5.0,14.0,70,0.00,,,0.00,,2013-03-01 20:52:00,
2013-03-01 15:01:00,27.0,19.0,30.33,NW,315,6.0,15.0,70,0.00,,,0.00,,2013-03-01 21:01:00,
2013-03-01 15:11:00,26.0,18.0,30.33,NNW,328,7.0,14.0,70,0.00,,,0.00,,2013-03-01 21:11:00,
2013-03-01 15:21:00,26.0,18.0,30.33,NNW,328,7.0,14.0,70,0.00,,,0.00,,2013-03-01 21:21:00,
2013-03-01 15:32:00,27.0,19.0,30.33,NW,316,5.0,13.0,71,0.00,,,0.00,,2013-03-01 21:32:00,
2013-03-01 15:41:00,27.0,19.0,30.33,NW,316,5.0,13.0,71,0.00,,,0.00,,2013-03-01 21:41:00,
2013-03-01 15:51:00,27.0,19.0,30.33,North,5,5.0,15.0,71,0.00,,,0.00,,2013-03-01 21:51:00,
2013-03-01 16:01:00,27.0,19.0,30.34,NNE,12,7.0,12.0,72,0.00,,,0.00,,2013-03-01 22:01:00,
2013-03-01 16:11:00,27.0,19.0,30.34,NNE,12,7.0,12.0,72,0.00,,,0.00,,2013-03-01 22:11:00,
2013-03-01 16:21:00,26.0,19.0,30.34,NW,315,6.0,13.0,73,0.00,,,0.00,,2013-03-01 22:21:00,
2013-03-01 16:32:00,26.0,19.0,30.34,NNW,329,7.0,12.0,73,0.00,,,0.00,,2013-03-01 22:32:00,
2013-03-01 16:42:00,26.0,19.0,30.34,NNW,329,7.0,12.0,73,0.00,,,0.00,,2013-03-01 22:42:00,
2013-03-01 16:51:00,26.0,19.0,30.34,North,10,6.0,13.0,74,0.00,,,0.00,,2013-03-01 22:51:00,
2013-03-01 17:01:00,26.0,19.0,30.35,NNW,342,6.0,13.0,73,0.00,,,0.00,,2013-03-01 23:01:00,
2013-03-01 17:11:00,26.0,19.0,30.35,NNW,342,6.0,13.0,73,0.00,,,0.00,,2013-03-01 23:11:00,
2013-03-01 17:21:00,26.0,19.0,30.35,NNW,344,7.0,16.0,73,0.00,,,0.00,,2013-03-01 23:21:00,
2013-03-01 17:31:00,25.0,18.0,30.36,North,11,7.0,15.0,74,0.00,,,0.00,,2013-03-01 23:31:00,
2013-03-01 17:41:00,25.0,18.0,30.36,North,11,7.0,15.0,74,0.00,,,0.00,,2013-03-01 23:41:00,
2013-03-01 17:52:00,25.0,18.0,30.37,NNW,333,4.0,18.0,74,0.00,,,0.00,,2013-03-01 23:52:00,
2013-03-01 18:02:00,25.0,18.0,30.37,NW,304,3.0,12.0,74,0.00,,,0.00,,2013-03-02 00:02:00,
2013-03-01 18:11:00,25.0,18.0,30.37,NW,304,3.0,12.0,74,0.00,,,0.00,,2013-03-02 00:11:00,
2013-03-01 18:22:00,25.0,18.0,30.37,West,275,4.0,10.0,74,0.00,,,0.00,,2013-03-02 00:22:00,
2013-03-01 18:32:00,25.0,18.0,30.38,NNW,340,7.0,11.0,74,0.00,,,0.00,,2013-03-02 00:32:00,
2013-03-01 18:42:00,25.0,18.0,30.38,NNW,340,7.0,11.0,74,0.00,,,0.00,,2013-03-02 00:42:00,
2013-03-01 18:52:00,24.0,17.0,30.38,NNE,12,6.0,11.0,73,0.00,,,0.00,,2013-03-02 00:52:00,
2013-03-01 19:01:00,24.0,17.0,30.39,NNW,343,4.0,13.0,74,0.00,,,0.00,,2013-03-02 01:01:00,
2013-03-01 19:11:00,24.0,17.0,30.39,NNW,343,4.0,13.0,74,0.00,,,0.00,,2013-03-02 01:11:00,
2013-03-01 19:21:00,24.0,17.0,30.39,NNE,13,7.0,12.0,74,0.00,,,0.00,,2013-03-02 01:21:00,
2013-03-01 19:31:00,24.0,17.0,30.40,NNW,329,3.0,12.0,74,0.00,,,0.00,,2013-03-02 01:31:00,
2013-03-01 19:41:00,24.0,17.0,30.40,NNW,329,3.0,12.0,74,0.00,,,0.00,,2013-03-02 01:41:00,
2013-03-01 19:51:00,24.0,17.0,30.39,NNE,15,3.0,7.0,75,0.00,,,0.00,,2013-03-02 01:51:00,
2013-03-01 20:01:00,23.0,16.0,30.40,North,10,5.0,11.0,74,0.00,,,0.00,,2013-03-02 02:01:00,
2013-03-01 20:11:00,23.0,16.0,30.40,North,10,5.0,11.0,74,0.00,,,0.00,,2013-03-02 02:11:00,
2013-03-01 20:22:00,23.0,16.0,30.40,North,10,5.0,11.0,74,0.00,,,0.00,,2013-03-02 02:22:00,
2013-03-01 20:32:00,23.0,16.0,30.40,NNE,26,4.0,12.0,74,0.00,,,0.00,,2013-03-02 02:32:00,
2013-03-01 20:42:00,23.0,16.0,30.40,NNE,26,4.0,12.0,74,0.00,,,0.00,,2013-03-02 02:42:00,
2013-03-01 20:52:00,23.0,16.0,30.40,NNE,26,4.0,12.0,74,0.00,,,0.00,,2013-03-02 02:52:00,
2013-03-01 21:01:00,23.0,17.0,30.40,North,355,5.0,10.0,76,0.00,,,0.00,,2013-03-02 03:01:00,
2013-03-01 21:11:00,23.0,17.0,30.40,North,355,5.0,10.0,76,0.00,,,0.00,,2013-03-02 03:11:00,
2013-03-01 21:21:00,23.0,17.0,30.40,NE,35,4.0,9.0,77,0.00,,,0.00,,2013-03-02 03:21:00,
2013-03-01 21:32:00,23.0,17.0,30.40,North,11,5.0,9.0,77,0.00,,,0.00,,2013-03-02 03:32:00,
2013-03-01 21:42:00,23.0,17.0,30.40,North,11,5.0,9.0,77,0.00,,,0.00,,2013-03-02 03:42:00,
2013-03-01 21:52:00,23.0,17.0,30.40,NNW,344,4.0,11.0,76,0.00,,,0.00,,2013-03-02 03:52:00,
2013-03-01 22:01:00,23.0,17.0,30.40,NNW,339,4.0,10.0,76,0.00,,,0.00,,2013-03-02 04:01:00,
2013-03-01 22:11:00,23.0,17.0,30.40,NNW,339,4.0,10.0,76,0.00,,,0.00,,2013-03-02 04:11:00,
2013-03-01 22:21:00,22.0,16.0,30.41,NNW,340,2.0,6.0,77,0.00,,,0.00,,2013-03-02 04:21:00,
2013-03-01 22:32:00,22.0,16.0,30.42,North,5,3.0,8.0,76,0.00,,,0.00,,2013-03-02 04:32:00,
2013-03-01 22:42:00,22.0,16.0,30.42,North,5,3.0,8.0,76,0.00,,,0.00,,2013-03-02 04:42:00,
2013-03-01 22:52:00,22.0,16.0,30.42,North,360,3.0,8.0,77,0.00,,,0.00,,2013-03-02 04:52:00,
2013-03-01 23:01:00,22.0,16.0,30.42,NNW,346,4.0,9.0,77,0.00,,,0.00,,2013-03-02 05:01:00,
2013-03-01 23:12:00,22.0,16.0,30.42,NNW,346,4.0,9.0,77,0.00,,,0.00,,2013-03-02 05:12:00,
2013-03-01 23:22:00,22.0,16.0,30.41,North,349,3.0,9.0,77,0.00,,,0.00,,2013-03-02 05:22:00,
2013-03-01 23:32:00,22.0,16.0,30.41,NW,318,2.0,9.0,77,0.00,,,0.00,,2013-03-02 05:32:00,
2013-03-01 23:42:00,22.0,16.0,30.41,NW,318,2.0,9.0,77,0.00,,,0.00,,2013-03-02 05:42:00,
2013-03-01 23:52:00,22.0,16.0,30.41,NNW,333,2.0,8.0,77,0.00,,,0.00,,2013-03-02 05:52:00,